sat.trackr.live / text

‹ back to catalog

STARLINK-31127

NORAD 58765 · 2024-011A

PAYLOAD ACTIVE UNKNOWN

§ Identity

Operator
Country
US
Launch date
2024-01-14
Launch site
AFWTR
Launch vehicle
Mass (kg)
RCS (m²)

Purposes: comms

External: N2YO · Heavens-Above · Gunter

§ Orbital elements

Epoch: 2026-05-24T22:29:28.636800Z

Period
94.11 min
Inclination
53.1617°
Eccentricity
0.0001255
Mean motion
15.30204759 rev/d
Perigee alt
474.3 km
Apogee alt
476.1 km
Semi-major
6,853.3 km
B*
-2.0605e-5
RAAN
19.5502°
Arg perigee
84.6331°
Mean anomaly
275.4813°
Rev number
13,194

§ Raw data

STARLINK-311271 58765U 24011A   26144.93713700 -.00000969  00000+0 -20605-4 0  99982 58765  53.1617  19.5502 0001255  84.6331 275.4813 15.30204759131940

JSON: /api/v1/satellites/58765 · /tle

For live sub-satellite position, see the globe view (requires WebGL).

§ Visibility from observer

Set your observer location to see the next 7 days of passes ≥ 10°. The values pass through the URL so the page stays shareable.

No JS? Fill the form by hand. The geolocation button needs JavaScript.